Time,TemperatureF,DewpointF,PressureIn,WindDirection,WindDirectionDegrees,WindSpeedMPH,WindSpeedGustMPH,Humidity,HourlyPrecipIn,Conditions,Clouds,dailyrainin,SoftwareType,DateUTC
2013-04-28 00:01:00,50.2,25.6,30.12,ESE,112,2.7,3.1,38,0.00,,---,0.00,VWS V14.01,2013-04-28 04:01:00,
2013-04-28 00:06:00,50.2,25.6,30.12,SSE,158,3.6,5.4,38,0.00,,---,0.00,VWS V14.01,2013-04-28 04:06:00,
2013-04-28 00:11:00,50.2,25.6,30.12,SSE,158,3.1,3.1,38,0.00,,---,0.00,VWS V14.01,2013-04-28 04:11:00,
2013-04-28 00:16:00,50.0,25.4,30.09,ENE,68,2.7,3.6,38,0.00,,---,0.00,VWS V14.01,2013-04-28 04:16:00,
2013-04-28 00:21:00,49.6,25.1,30.09,ESE,112,4.0,4.0,38,0.00,,---,0.00,VWS V14.01,2013-04-28 04:21:00,
2013-04-28 00:26:00,49.6,25.1,30.09,ESE,112,3.1,3.4,38,0.00,,---,0.00,VWS V14.01,2013-04-28 04:26:00,
2013-04-28 00:31:00,49.5,24.9,30.09,SE,135,2.7,3.6,38,0.00,,---,0.00,VWS V14.01,2013-04-28 04:31:00,
2013-04-28 00:36:00,49.3,24.8,30.09,ESE,112,2.7,3.6,38,0.00,,---,0.00,VWS V14.01,2013-04-28 04:36:00,
2013-04-28 00:41:00,49.3,24.8,30.09,ENE,68,7.6,7.6,38,0.00,,---,0.00,VWS V14.01,2013-04-28 04:41:00,
2013-04-28 00:46:00,49.3,24.8,30.09,ESE,112,2.5,2.9,38,0.00,,---,0.00,VWS V14.01,2013-04-28 04:46:00,
2013-04-28 00:51:00,49.3,24.8,30.09,SE,135,3.8,3.8,38,0.00,,---,0.00,VWS V14.01,2013-04-28 04:51:00,
2013-04-28 00:56:00,49.1,24.6,30.09,SE,135,4.9,4.9,38,0.00,,---,0.00,VWS V14.01,2013-04-28 04:56:00,
2013-04-28 01:01:00,48.9,24.5,30.09,ESE,112,3.1,3.1,38,0.00,,---,0.00,VWS V14.01,2013-04-28 05:01:00,
2013-04-28 01:06:00,48.7,24.3,30.09,East,90,2.0,2.2,38,0.00,,---,0.00,VWS V14.01,2013-04-28 05:06:00,
2013-04-28 01:11:00,48.7,24.3,30.09,ESE,112,2.5,2.5,38,0.00,,---,0.00,VWS V14.01,2013-04-28 05:11:00,
2013-04-28 01:16:00,48.6,24.1,30.09,ESE,112,2.5,2.9,38,0.00,,---,0.00,VWS V14.01,2013-04-28 05:16:00,
2013-04-28 01:21:00,48.6,24.1,30.09,ENE,68,2.9,2.9,38,0.00,,---,0.00,VWS V14.01,2013-04-28 05:21:00,
2013-04-28 01:26:00,48.4,24.0,30.09,ESE,112,2.5,3.4,38,0.00,,---,0.00,VWS V14.01,2013-04-28 05:26:00,
2013-04-28 01:31:00,48.2,23.8,30.09,SE,135,3.4,4.0,38,0.00,,---,0.00,VWS V14.01,2013-04-28 05:31:00,
2013-04-28 01:36:00,48.0,24.3,30.09,East,90,2.5,2.5,39,0.00,,---,0.00,VWS V14.01,2013-04-28 05:36:00,
2013-04-28 01:41:00,47.8,24.1,30.09,ENE,68,2.7,2.7,39,0.00,,---,0.00,VWS V14.01,2013-04-28 05:41:00,
2013-04-28 01:46:00,47.7,23.9,30.09,ENE,68,2.5,2.9,39,0.00,,---,0.00,VWS V14.01,2013-04-28 05:46:00,
2013-04-28 01:51:00,47.5,23.8,30.09,ESE,112,2.7,2.7,39,0.00,,---,0.00,VWS V14.01,2013-04-28 05:51:00,
2013-04-28 01:56:00,47.5,23.8,30.09,ENE,68,2.5,3.4,39,0.00,,---,0.00,VWS V14.01,2013-04-28 05:56:00,
2013-04-28 02:01:00,47.3,23.6,30.09,ESE,112,2.9,2.9,39,0.00,,---,0.00,VWS V14.01,2013-04-28 06:01:00,
2013-04-28 02:06:00,47.1,23.5,30.09,ESE,112,2.5,2.9,39,0.00,,---,0.00,VWS V14.01,2013-04-28 06:06:00,
2013-04-28 02:11:00,47.1,23.5,30.09,ENE,68,2.7,3.1,39,0.00,,---,0.00,VWS V14.01,2013-04-28 06:11:00,
2013-04-28 02:16:00,46.9,23.3,30.06,ENE,68,3.4,3.6,39,0.00,,---,0.00,VWS V14.01,2013-04-28 06:16:00,
2013-04-28 02:21:00,46.9,23.3,30.06,ENE,68,2.7,3.4,39,0.00,,---,0.00,VWS V14.01,2013-04-28 06:21:00,
2013-04-28 02:26:00,46.9,23.3,30.06,ENE,68,3.8,4.5,39,0.00,,---,0.00,VWS V14.01,2013-04-28 06:26:00,
2013-04-28 02:31:00,46.9,23.3,30.06,ENE,68,2.9,3.6,39,0.00,,---,0.00,VWS V14.01,2013-04-28 06:31:00,
2013-04-28 02:36:00,46.9,23.3,30.06,ENE,68,2.7,2.7,39,0.00,,---,0.00,VWS V14.01,2013-04-28 06:36:00,
2013-04-28 02:41:00,47.1,23.5,30.06,ENE,68,2.5,3.1,39,0.00,,---,0.00,VWS V14.01,2013-04-28 06:41:00,
2013-04-28 02:46:00,47.1,23.5,30.03,ENE,68,3.6,3.6,39,0.00,,---,0.00,VWS V14.01,2013-04-28 06:46:00,
2013-04-28 02:51:00,47.3,23.6,30.03,NNE,22,3.6,4.0,39,0.00,,---,0.00,VWS V14.01,2013-04-28 06:51:00,
2013-04-28 02:56:00,47.7,23.9,30.03,ENE,68,5.4,5.4,39,0.00,,---,0.00,VWS V14.01,2013-04-28 06:56:00,
2013-04-28 03:01:00,48.4,24.6,30.06,ENE,68,3.6,3.6,39,0.00,,---,0.00,VWS V14.01,2013-04-28 07:01:00,
2013-04-28 03:06:00,48.9,25.1,30.06,ENE,68,3.6,4.0,39,0.00,,---,0.00,VWS V14.01,2013-04-28 07:06:00,
2013-04-28 03:11:00,49.1,25.2,30.06,ENE,68,3.6,3.8,39,0.00,,---,0.00,VWS V14.01,2013-04-28 07:11:00,
2013-04-28 03:16:00,49.5,25.5,30.06,NNE,22,4.0,5.4,39,0.00,,---,0.00,VWS V14.01,2013-04-28 07:16:00,
2013-04-28 03:21:00,49.6,25.1,30.06,ENE,68,3.8,5.4,38,0.00,,---,0.00,VWS V14.01,2013-04-28 07:21:00,
2013-04-28 03:26:00,49.8,25.2,30.06,NNE,22,3.6,5.8,38,0.00,,---,0.00,VWS V14.01,2013-04-28 07:26:00,
2013-04-28 03:31:00,50.2,25.6,30.03,ENE,68,3.6,5.6,38,0.00,,---,0.00,VWS V14.01,2013-04-28 07:31:00,
2013-04-28 03:36:00,50.2,25.6,30.03,ENE,68,2.7,4.0,38,0.00,,---,0.00,VWS V14.01,2013-04-28 07:36:00,
2013-04-28 03:40:00,50.2,25.6,30.03,NE,45,2.9,3.1,38,0.00,,---,0.00,VWS V14.01,2013-04-28 07:40:00,
2013-04-28 03:45:00,50.2,25.6,30.00,ESE,112,4.3,4.7,38,0.00,,---,0.00,VWS V14.01,2013-04-28 07:45:00,
2013-04-28 03:50:00,50.2,25.6,30.00,ENE,68,2.7,3.4,38,0.00,,---,0.00,VWS V14.01,2013-04-28 07:50:00,
2013-04-28 03:55:00,50.2,25.6,30.00,ENE,68,3.4,4.0,38,0.00,,---,0.00,VWS V14.01,2013-04-28 07:55:00,
2013-04-28 04:00:00,50.4,25.7,30.00,SSE,158,4.3,5.6,38,0.00,,---,0.00,VWS V14.01,2013-04-28 08:00:00,
2013-04-28 04:05:00,50.4,25.1,30.00,ENE,68,3.8,3.8,37,0.00,,---,0.00,VWS V14.01,2013-04-28 08:05:00,
2013-04-28 04:10:00,50.4,25.7,30.00,ESE,112,4.9,4.9,38,0.00,,---,0.00,VWS V14.01,2013-04-28 08:10:00,
2013-04-28 04:15:00,50.4,25.7,30.00,NE,45,2.5,4.9,38,0.00,,---,0.00,VWS V14.01,2013-04-28 08:15:00,
2013-04-28 04:20:00,50.4,25.7,30.00,East,90,3.6,3.6,38,0.00,,---,0.00,VWS V14.01,2013-04-28 08:20:00,
2013-04-28 04:25:00,50.4,25.7,30.00,ENE,68,2.5,3.4,38,0.00,,---,0.00,VWS V14.01,2013-04-28 08:25:00,
2013-04-28 04:30:00,50.2,25.6,30.00,SSE,158,4.0,4.5,38,0.00,,---,0.00,VWS V14.01,2013-04-28 08:30:00,
2013-04-28 04:35:00,50.2,25.6,30.00,ESE,112,3.4,4.3,38,0.00,,---,0.00,VWS V14.01,2013-04-28 08:35:00,
2013-04-28 04:40:00,50.2,25.6,30.00,SE,135,2.7,3.6,38,0.00,,---,0.00,VWS V14.01,2013-04-28 08:40:00,
2013-04-28 04:45:00,50.2,25.6,30.00,North,0,3.6,3.6,38,0.00,,---,0.00,VWS V14.01,2013-04-28 08:45:00,
2013-04-28 04:50:00,50.2,24.9,30.00,ENE,68,2.7,3.8,37,0.00,,---,0.00,VWS V14.01,2013-04-28 08:50:00,
2013-04-28 04:55:00,50.2,25.6,30.00,ESE,112,2.9,2.9,38,0.00,,---,0.00,VWS V14.01,2013-04-28 08:55:00,
2013-04-28 05:00:00,50.2,25.6,30.00,NE,45,4.0,4.0,38,0.00,,---,0.00,VWS V14.01,2013-04-28 09:00:00,
2013-04-28 05:05:00,50.2,25.6,30.00,SE,135,2.7,3.8,38,0.00,,---,0.00,VWS V14.01,2013-04-28 09:05:00,
2013-04-28 05:10:00,50.2,25.6,30.00,SE,135,3.4,3.4,38,0.00,,---,0.00,VWS V14.01,2013-04-28 09:10:00,
2013-04-28 05:15:00,50.2,25.6,30.00,ESE,112,2.7,3.1,38,0.00,,---,0.00,VWS V14.01,2013-04-28 09:15:00,
2013-04-28 05:20:00,50.0,25.4,30.00,East,90,3.4,5.6,38,0.00,,---,0.00,VWS V14.01,2013-04-28 09:20:00,
2013-04-28 05:25:00,50.0,25.4,30.00,ENE,68,3.4,3.4,38,0.00,,---,0.00,VWS V14.01,2013-04-28 09:25:00,
2013-04-28 05:30:00,50.0,25.4,30.00,ENE,68,2.7,3.1,38,0.00,,---,0.00,VWS V14.01,2013-04-28 09:30:00,
2013-04-28 05:35:00,50.0,25.4,30.00,ESE,112,2.0,3.4,38,0.00,,---,0.00,VWS V14.01,2013-04-28 09:35:00,
2013-04-28 05:40:00,50.0,25.4,30.00,ESE,112,3.1,3.4,38,0.00,,---,0.00,VWS V14.01,2013-04-28 09:40:00,
2013-04-28 05:45:00,50.0,25.4,29.97,ESE,112,3.1,3.1,38,0.00,,---,0.00,VWS V14.01,2013-04-28 09:45:00,
2013-04-28 05:50:00,50.0,25.4,29.97,SSE,158,1.6,2.9,38,0.00,,---,0.00,VWS V14.01,2013-04-28 09:50:00,
2013-04-28 05:55:00,49.8,25.2,29.97,ENE,68,2.9,3.6,38,0.00,,---,0.00,VWS V14.01,2013-04-28 09:55:00,
2013-04-28 06:00:00,49.8,25.9,30.00,NNE,22,2.7,3.1,39,0.00,,---,0.00,VWS V14.01,2013-04-28 10:00:00,
2013-04-28 06:05:00,49.6,25.7,30.00,ENE,68,4.0,4.0,39,0.00,,---,0.00,VWS V14.01,2013-04-28 10:05:00,
2013-04-28 06:10:00,49.6,25.7,30.00,ESE,112,2.7,2.9,39,0.00,,---,0.00,VWS V14.01,2013-04-28 10:10:00,
2013-04-28 06:15:00,49.5,25.5,30.00,NE,45,3.1,3.1,39,0.00,,---,0.00,VWS V14.01,2013-04-28 10:15:00,
2013-04-28 06:20:00,49.5,25.5,30.00,ENE,68,2.5,3.1,39,0.00,,---,0.00,VWS V14.01,2013-04-28 10:20:00,
2013-04-28 06:25:00,49.3,25.4,30.00,ENE,68,4.0,4.0,39,0.00,,---,0.00,VWS V14.01,2013-04-28 10:25:00,
2013-04-28 06:30:00,49.5,25.5,30.03,ESE,112,2.0,2.5,39,0.00,,---,0.00,VWS V14.01,2013-04-28 10:30:00,
2013-04-28 06:35:00,49.5,25.5,30.03,SSE,158,2.0,3.1,39,0.00,,---,0.00,VWS V14.01,2013-04-28 10:35:00,
2013-04-28 06:40:00,49.5,25.5,30.03,ENE,68,2.9,2.9,39,0.00,,---,0.00,VWS V14.01,2013-04-28 10:40:00,
2013-04-28 06:45:00,49.3,26.0,30.00,ESE,112,2.9,3.1,40,0.00,,---,0.00,VWS V14.01,2013-04-28 10:45:00,
2013-04-28 06:50:00,49.3,26.0,30.00,ENE,68,2.5,2.9,40,0.00,,---,0.00,VWS V14.01,2013-04-28 10:50:00,
2013-04-28 06:55:00,49.1,25.8,30.00,ESE,112,3.1,3.1,40,0.00,,---,0.00,VWS V14.01,2013-04-28 10:55:00,
2013-04-28 07:00:00,49.1,25.8,30.00,ESE,112,2.7,2.7,40,0.00,,---,0.00,VWS V14.01,2013-04-28 11:00:00,
2013-04-28 07:05:00,49.1,25.8,30.00,ENE,68,1.6,2.0,40,0.00,,---,0.00,VWS V14.01,2013-04-28 11:05:00,
2013-04-28 07:10:00,49.1,26.4,30.00,East,90,2.7,2.7,41,0.00,,---,0.00,VWS V14.01,2013-04-28 11:10:00,
2013-04-28 07:15:00,49.1,26.4,30.00,ENE,68,3.1,3.1,41,0.00,,---,0.00,VWS V14.01,2013-04-28 11:15:00,
2013-04-28 07:20:00,49.1,26.4,30.00,ENE,68,2.7,2.9,41,0.00,,---,0.00,VWS V14.01,2013-04-28 11:20:00,
2013-04-28 07:25:00,49.3,26.6,30.00,ESE,112,2.0,2.2,41,0.00,,---,0.00,VWS V14.01,2013-04-28 11:25:00,
2013-04-28 07:30:00,49.3,26.6,30.00,ESE,112,2.5,2.5,41,0.00,,---,0.00,VWS V14.01,2013-04-28 11:30:00,
2013-04-28 07:35:00,49.5,26.8,30.00,ESE,112,2.2,2.5,41,0.00,,---,0.00,VWS V14.01,2013-04-28 11:35:00,
2013-04-28 07:40:00,49.5,27.3,30.00,ENE,68,2.7,2.7,42,0.00,,---,0.00,VWS V14.01,2013-04-28 11:40:00,
2013-04-28 07:45:00,49.6,27.5,30.00,ESE,112,2.0,2.5,42,0.00,,---,0.00,VWS V14.01,2013-04-28 11:45:00,
2013-04-28 07:50:00,49.8,27.7,30.00,ENE,68,2.0,2.5,42,0.00,,---,0.00,VWS V14.01,2013-04-28 11:50:00,
2013-04-28 07:55:00,49.8,28.2,30.00,NE,45,2.5,2.5,43,0.00,,---,0.00,VWS V14.01,2013-04-28 11:55:00,
2013-04-28 08:00:00,50.0,27.8,30.00,SE,135,2.9,2.9,42,0.00,,---,0.00,VWS V14.01,2013-04-28 12:00:00,
2013-04-28 08:05:00,50.2,28.6,30.00,NE,45,2.9,2.9,43,0.00,,---,0.00,VWS V14.01,2013-04-28 12:05:00,
2013-04-28 08:10:00,50.2,28.0,30.00,East,90,2.7,2.7,42,0.00,,---,0.00,VWS V14.01,2013-04-28 12:10:00,
2013-04-28 08:15:00,50.5,28.3,30.00,ESE,112,2.7,3.4,42,0.00,,---,0.00,VWS V14.01,2013-04-28 12:15:00,
2013-04-28 08:20:00,50.9,29.2,30.00,ESE,112,2.0,2.2,43,0.00,,---,0.00,VWS V14.01,2013-04-28 12:20:00,
2013-04-28 08:25:00,51.3,29.5,30.00,ESE,112,1.6,2.2,43,0.00,,---,0.00,VWS V14.01,2013-04-28 12:25:00,
2013-04-28 08:30:00,51.6,29.9,29.97,SSE,158,2.0,2.5,43,0.00,,---,0.00,VWS V14.01,2013-04-28 12:30:00,
2013-04-28 08:35:00,52.0,30.2,29.97,ESE,112,2.9,3.8,43,0.00,,---,0.00,VWS V14.01,2013-04-28 12:35:00,
2013-04-28 08:40:00,52.3,30.0,29.97,ESE,112,2.5,3.6,42,0.00,,---,0.00,VWS V14.01,2013-04-28 12:40:00,
2013-04-28 08:45:00,52.7,30.3,29.97,SE,135,2.7,3.4,42,0.00,,---,0.00,VWS V14.01,2013-04-28 12:45:00,
2013-04-28 08:50:00,53.1,30.6,29.97,ENE,68,0.0,3.6,42,0.00,,---,0.00,VWS V14.01,2013-04-28 12:50:00,
2013-04-28 08:55:00,53.4,30.9,29.97,SE,135,3.4,3.8,42,0.00,,---,0.00,VWS V14.01,2013-04-28 12:55:00,
2013-04-28 09:00:00,53.8,30.6,29.97,ESE,112,3.4,3.4,41,0.00,,---,0.00,VWS V14.01,2013-04-28 13:00:00,
2013-04-28 09:05:00,54.1,31.0,29.97,SSE,158,2.9,3.8,41,0.00,,---,0.00,VWS V14.01,2013-04-28 13:05:00,
2013-04-28 09:10:00,54.3,31.1,29.97,SSW,202,2.2,4.0,41,0.00,,---,0.00,VWS V14.01,2013-04-28 13:10:00,
2013-04-28 09:15:00,54.7,31.5,29.97,SW,225,2.9,3.8,41,0.00,,---,0.00,VWS V14.01,2013-04-28 13:15:00,
2013-04-28 09:20:00,55.2,32.5,29.97,ENE,68,4.0,4.3,42,0.00,,---,0.00,VWS V14.01,2013-04-28 13:20:00,
2013-04-28 09:25:00,55.8,32.4,29.97,ENE,68,3.8,4.9,41,0.00,,---,0.00,VWS V14.01,2013-04-28 13:25:00,
2013-04-28 09:30:00,55.9,32.6,29.97,NE,45,4.3,5.4,41,0.00,,---,0.00,VWS V14.01,2013-04-28 13:30:00,
2013-04-28 09:35:00,56.1,32.8,29.97,ENE,68,3.4,3.6,41,0.00,,---,0.00,VWS V14.01,2013-04-28 13:35:00,
2013-04-28 09:40:00,56.3,32.9,29.97,ENE,68,2.9,3.4,41,0.00,,---,0.00,VWS V14.01,2013-04-28 13:40:00,
2013-04-28 09:45:00,56.7,33.2,29.97,ESE,112,2.7,2.7,41,0.00,,---,0.00,VWS V14.01,2013-04-28 13:45:00,
2013-04-28 09:50:00,56.8,33.4,29.97,ENE,68,3.4,3.8,41,0.00,,---,0.00,VWS V14.01,2013-04-28 13:50:00,
2013-04-28 09:55:00,57.2,33.7,29.97,NNW,338,1.3,3.4,41,0.00,,---,0.00,VWS V14.01,2013-04-28 13:55:00,
2013-04-28 10:00:00,57.2,33.7,29.97,ENE,68,2.9,4.9,41,0.00,,---,0.00,VWS V14.01,2013-04-28 14:00:00,
2013-04-28 10:05:00,57.2,33.1,29.97,SSE,158,2.9,4.0,40,0.00,,---,0.00,VWS V14.01,2013-04-28 14:05:00,
2013-04-28 10:10:00,57.4,33.3,29.97,SSE,158,3.4,3.4,40,0.00,,---,0.00,VWS V14.01,2013-04-28 14:10:00,
2013-04-28 10:15:00,57.6,33.4,29.94,SSE,158,3.8,6.0,40,0.00,,---,0.00,VWS V14.01,2013-04-28 14:15:00,
2013-04-28 10:20:00,57.9,34.4,29.94,ESE,112,3.4,3.6,41,0.00,,---,0.00,VWS V14.01,2013-04-28 14:20:00,
2013-04-28 10:25:00,58.1,34.5,29.94,SE,135,2.9,5.4,41,0.00,,---,0.00,VWS V14.01,2013-04-28 14:25:00,
2013-04-28 10:29:00,58.6,34.4,29.94,SSE,158,2.0,2.9,40,0.00,,---,0.00,VWS V14.01,2013-04-28 14:29:00,
2013-04-28 10:34:00,58.8,34.6,29.94,ESE,112,2.0,2.9,40,0.00,,---,0.00,VWS V14.01,2013-04-28 14:34:00,
2013-04-28 10:39:00,59.2,34.9,29.94,NNE,22,2.5,2.7,40,0.00,,---,0.00,VWS V14.01,2013-04-28 14:39:00,
2013-04-28 10:44:00,59.9,35.5,29.94,ENE,68,6.0,6.0,40,0.00,,---,0.00,VWS V14.01,2013-04-28 14:44:00,
2013-04-28 10:49:00,59.9,34.9,29.94,SE,135,4.9,7.8,39,0.00,,---,0.00,VWS V14.01,2013-04-28 14:49:00,
2013-04-28 10:54:00,59.7,35.4,29.94,ESE,112,3.4,4.9,40,0.00,,---,0.00,VWS V14.01,2013-04-28 14:54:00,
2013-04-28 10:59:00,59.4,35.1,29.91,ESE,112,2.7,6.5,40,0.00,,---,0.00,VWS V14.01,2013-04-28 14:59:00,
2013-04-28 11:04:00,59.2,34.9,29.91,SSE,158,5.8,5.8,40,0.00,,---,0.00,VWS V14.01,2013-04-28 15:04:00,
2013-04-28 11:09:00,59.2,35.5,29.91,SSE,158,5.4,5.4,41,0.00,,---,0.00,VWS V14.01,2013-04-28 15:09:00,
2013-04-28 11:14:00,59.2,36.1,29.91,ESE,112,5.4,7.6,42,0.00,,---,0.00,VWS V14.01,2013-04-28 15:14:00,
2013-04-28 11:19:00,59.2,36.1,29.91,ESE,112,3.1,6.0,42,0.00,,---,0.00,VWS V14.01,2013-04-28 15:19:00,
2013-04-28 11:24:00,59.2,36.7,29.91,ESE,112,3.1,4.3,43,0.00,,---,0.00,VWS V14.01,2013-04-28 15:24:00,
2013-04-28 11:29:00,59.4,38.0,29.91,SE,135,2.9,3.4,45,0.00,,---,0.00,VWS V14.01,2013-04-28 15:29:00,
2013-04-28 11:34:00,59.4,38.0,29.91,SSE,158,3.4,3.4,45,0.00,,---,0.00,VWS V14.01,2013-04-28 15:34:00,
2013-04-28 11:39:00,59.4,38.6,29.91,ESE,112,2.7,5.4,46,0.00,,---,0.00,VWS V14.01,2013-04-28 15:39:00,
2013-04-28 11:44:00,59.2,38.4,29.94,South,180,4.3,4.3,46,0.00,,---,0.00,VWS V14.01,2013-04-28 15:44:00,
2013-04-28 11:49:00,58.8,38.7,29.94,ENE,68,2.7,4.3,47,0.00,,---,0.00,VWS V14.01,2013-04-28 15:49:00,
2013-04-28 11:54:00,59.0,39.4,29.94,SSE,158,7.4,7.4,48,0.00,,---,0.00,VWS V14.01,2013-04-28 15:54:00,
2013-04-28 11:59:00,58.6,39.0,29.94,SSE,158,6.5,6.5,48,0.00,,---,0.00,VWS V14.01,2013-04-28 15:59:00,
2013-04-28 12:04:00,58.3,39.2,29.94,SSE,158,1.6,1.6,49,0.00,,---,0.00,VWS V14.01,2013-04-28 16:04:00,
2013-04-28 12:09:00,58.1,39.1,29.94,SSE,158,2.7,4.0,49,0.00,,---,0.00,VWS V14.01,2013-04-28 16:09:00,
2013-04-28 12:14:00,57.6,40.1,29.94,SSW,202,5.6,5.6,52,0.00,,---,0.00,VWS V14.01,2013-04-28 16:14:00,
2013-04-28 12:19:00,57.2,39.8,29.94,ENE,68,4.7,4.7,52,0.00,,---,0.00,VWS V14.01,2013-04-28 16:19:00,
2013-04-28 12:24:00,57.2,40.2,29.94,SE,135,2.2,4.3,53,0.00,,---,0.00,VWS V14.01,2013-04-28 16:24:00,
2013-04-28 12:29:00,56.8,41.3,29.94,SSE,158,2.5,4.3,56,0.00,,---,0.00,VWS V14.01,2013-04-28 16:29:00,
2013-04-28 12:34:00,56.7,41.2,29.94,SSE,158,2.9,4.0,56,0.00,,---,0.00,VWS V14.01,2013-04-28 16:34:00,
2013-04-28 12:39:00,56.5,41.5,29.94,WSW,248,3.1,3.1,57,0.00,,---,0.00,VWS V14.01,2013-04-28 16:39:00,
2013-04-28 12:44:00,56.1,42.4,29.94,East,90,2.7,5.8,60,0.00,,---,0.00,VWS V14.01,2013-04-28 16:44:00,
2013-04-28 12:49:00,55.6,41.9,29.94,NE,45,0.9,1.6,60,0.00,,---,0.00,VWS V14.01,2013-04-28 16:49:00,
2013-04-28 12:54:00,55.2,42.9,29.94,ENE,68,2.9,3.6,63,0.00,,---,0.00,VWS V14.01,2013-04-28 16:54:00,
2013-04-28 12:59:00,54.7,43.6,29.91,SSE,158,2.0,3.1,66,0.00,,---,0.00,VWS V14.01,2013-04-28 16:59:00,
2013-04-28 13:04:00,54.7,44.0,29.91,ESE,112,2.7,2.7,67,0.00,,---,0.00,VWS V14.01,2013-04-28 17:04:00,
2013-04-28 13:09:00,54.3,44.0,29.91,NNE,22,2.5,2.5,68,0.00,,---,0.00,VWS V14.01,2013-04-28 17:09:00,
2013-04-28 13:14:00,54.1,45.0,29.91,ESE,112,2.0,3.1,71,0.00,,---,0.00,VWS V14.01,2013-04-28 17:14:00,
2013-04-28 13:19:00,54.1,45.0,29.91,South,180,2.5,2.5,71,0.00,,---,0.00,VWS V14.01,2013-04-28 17:19:00,
2013-04-28 13:24:00,54.0,44.8,29.91,ESE,112,2.2,2.5,71,0.00,,---,0.00,VWS V14.01,2013-04-28 17:24:00,
2013-04-28 13:29:00,54.0,45.2,29.94,SSE,158,2.5,3.6,72,0.00,,---,0.00,VWS V14.01,2013-04-28 17:29:00,
2013-04-28 13:34:00,53.6,44.8,29.94,ENE,68,2.7,2.9,72,0.00,,---,0.00,VWS V14.01,2013-04-28 17:34:00,
2013-04-28 13:39:00,53.4,45.0,29.94,NE,45,1.6,1.6,73,0.00,,---,0.00,VWS V14.01,2013-04-28 17:39:00,
2013-04-28 13:44:00,53.2,44.8,29.91,SSW,202,2.9,2.9,73,0.00,,---,0.00,VWS V14.01,2013-04-28 17:44:00,
2013-04-28 13:49:00,53.2,45.5,29.91,ESE,112,2.7,2.7,75,0.00,,---,0.00,VWS V14.01,2013-04-28 17:49:00,
2013-04-28 13:54:00,53.1,45.4,29.91,ESE,112,2.5,2.5,75,0.00,,---,0.00,VWS V14.01,2013-04-28 17:54:00,
2013-04-28 13:59:00,52.9,45.2,29.91,NE,45,3.1,3.1,75,0.00,,---,0.00,VWS V14.01,2013-04-28 17:59:00,
2013-04-28 14:04:00,52.7,45.4,29.91,ESE,112,0.0,0.0,76,0.00,,---,0.00,VWS V14.01,2013-04-28 18:04:00,
2013-04-28 14:09:00,52.5,46.2,29.91,SSE,158,2.7,2.7,79,0.00,,---,0.00,VWS V14.01,2013-04-28 18:09:00,
2013-04-28 14:14:00,52.5,46.5,29.91,ENE,68,2.0,2.5,80,0.00,,---,0.00,VWS V14.01,2013-04-28 18:14:00,
2013-04-28 14:19:00,52.3,46.7,29.91,NNW,338,2.7,3.6,81,0.00,,---,0.00,VWS V14.01,2013-04-28 18:19:00,
2013-04-28 14:24:00,52.2,46.8,29.91,NE,45,5.4,5.4,82,0.00,,---,0.00,VWS V14.01,2013-04-28 18:24:00,
2013-04-28 14:29:00,52.2,46.5,29.91,NNW,338,1.1,1.1,81,0.00,,---,0.00,VWS V14.01,2013-04-28 18:29:00,
2013-04-28 14:34:00,52.0,47.0,29.91,ENE,68,2.9,2.9,83,0.00,,---,0.00,VWS V14.01,2013-04-28 18:34:00,
2013-04-28 14:39:00,52.0,47.0,29.91,NE,45,3.6,3.6,83,0.00,,---,0.00,VWS V14.01,2013-04-28 18:39:00,
2013-04-28 14:44:00,51.8,47.1,29.91,ESE,112,3.4,3.4,84,0.00,,---,0.00,VWS V14.01,2013-04-28 18:44:00,
2013-04-28 14:49:00,51.8,47.1,29.91,NE,45,4.3,4.9,84,0.00,,---,0.00,VWS V14.01,2013-04-28 18:49:00,
2013-04-28 14:54:00,51.8,47.4,29.91,NNW,338,2.9,2.9,85,0.00,,---,0.00,VWS V14.01,2013-04-28 18:54:00,
2013-04-28 14:59:00,52.0,47.6,29.88,ESE,112,2.7,2.7,85,0.00,,---,0.00,VWS V14.01,2013-04-28 18:59:00,
2013-04-28 15:04:00,52.2,48.4,29.88,East,90,4.3,4.3,87,0.00,,---,0.00,VWS V14.01,2013-04-28 19:04:00,
2013-04-28 15:09:00,52.2,48.4,29.88,NNE,22,3.8,4.0,87,0.00,,---,0.00,VWS V14.01,2013-04-28 19:09:00,
2013-04-28 15:14:00,52.2,48.7,29.88,NE,45,6.0,6.0,88,0.00,,---,0.00,VWS V14.01,2013-04-28 19:14:00,
2013-04-28 15:19:00,52.0,48.5,29.88,ENE,68,4.7,4.7,88,0.00,,---,0.00,VWS V14.01,2013-04-28 19:19:00,
2013-04-28 15:24:00,52.0,48.5,29.88,ESE,112,3.1,3.1,88,0.00,,---,0.00,VWS V14.01,2013-04-28 19:24:00,
2013-04-28 15:29:00,52.2,48.4,29.88,North,0,2.9,4.7,87,0.00,,---,0.00,VWS V14.01,2013-04-28 19:29:00,
2013-04-28 15:34:00,52.2,48.7,29.88,NE,45,3.8,3.8,88,0.00,,---,0.00,VWS V14.01,2013-04-28 19:34:00,
2013-04-28 15:39:00,52.0,48.5,29.88,ENE,68,4.9,4.9,88,0.00,,---,0.00,VWS V14.01,2013-04-28 19:39:00,
2013-04-28 15:44:00,52.0,48.5,29.88,NE,45,4.5,4.5,88,0.00,,---,0.00,VWS V14.01,2013-04-28 19:44:00,
2013-04-28 15:49:00,52.0,48.5,29.88,East,90,2.7,2.7,88,0.00,,---,0.00,VWS V14.01,2013-04-28 19:49:00,
2013-04-28 15:54:00,52.0,48.2,29.88,East,90,2.7,2.7,87,0.00,,---,0.00,VWS V14.01,2013-04-28 19:54:00,
2013-04-28 15:59:00,52.0,48.2,29.85,East,90,2.7,2.7,87,0.00,,---,0.00,VWS V14.01,2013-04-28 19:59:00,
2013-04-28 16:04:00,52.0,48.2,29.85,East,90,2.7,2.7,87,0.00,,---,0.00,VWS V14.01,2013-04-28 20:04:00,
2013-04-28 16:09:00,52.0,48.5,29.85,East,90,2.7,2.7,88,0.00,,---,0.00,VWS V14.01,2013-04-28 20:09:00,
2013-04-28 16:14:00,52.0,48.5,29.85,East,90,2.7,2.7,88,0.00,,---,0.00,VWS V14.01,2013-04-28 20:14:00,
2013-04-28 16:19:00,52.0,48.5,29.85,East,90,2.7,2.7,88,0.00,,---,0.00,VWS V14.01,2013-04-28 20:19:00,
2013-04-28 16:24:00,52.0,48.5,29.85,East,90,2.7,2.7,88,0.00,,---,0.00,VWS V14.01,2013-04-28 20:24:00,
2013-04-28 16:29:00,52.0,48.5,29.88,East,90,2.7,2.7,88,0.00,,---,0.00,VWS V14.01,2013-04-28 20:29:00,
2013-04-28 16:33:00,51.8,48.1,29.88,NNE,22,1.3,2.7,87,0.00,,---,0.00,VWS V14.01,2013-04-28 20:33:00,
2013-04-28 16:38:00,51.8,48.4,29.88,East,90,3.1,3.1,88,0.00,,---,0.00,VWS V14.01,2013-04-28 20:38:00,
2013-04-28 16:43:00,51.8,48.4,29.88,East,90,3.1,3.1,88,0.00,,---,0.00,VWS V14.01,2013-04-28 20:43:00,
2013-04-28 16:48:00,51.6,48.2,29.88,NNE,22,2.5,2.5,88,0.00,,---,0.00,VWS V14.01,2013-04-28 20:48:00,
2013-04-28 16:53:00,51.6,48.2,29.88,NNE,22,3.8,3.8,88,0.00,,---,0.00,VWS V14.01,2013-04-28 20:53:00,
2013-04-28 16:58:00,51.4,48.3,29.88,ENE,68,1.3,1.3,89,0.00,,---,0.00,VWS V14.01,2013-04-28 20:58:00,
2013-04-28 17:03:00,51.6,48.2,29.88,ENE,68,1.3,1.3,88,0.00,,---,0.00,VWS V14.01,2013-04-28 21:03:00,
2013-04-28 17:08:00,51.4,48.3,29.88,NE,45,2.7,2.9,89,0.00,,---,0.00,VWS V14.01,2013-04-28 21:08:00,
2013-04-28 17:13:00,51.4,48.3,29.88,East,90,3.6,3.6,89,0.00,,---,0.00,VWS V14.01,2013-04-28 21:13:00,
2013-04-28 17:18:00,51.4,48.3,29.88,NE,45,2.0,2.0,89,0.00,,---,0.00,VWS V14.01,2013-04-28 21:18:00,
2013-04-28 17:23:00,51.4,48.6,29.88,WNW,292,2.5,2.5,90,0.00,,---,0.00,VWS V14.01,2013-04-28 21:23:00,
2013-04-28 17:28:00,51.4,48.6,29.88,NNW,338,3.6,3.6,90,0.00,,---,0.00,VWS V14.01,2013-04-28 21:28:00,
2013-04-28 17:33:00,51.3,48.4,29.88,NNE,22,2.5,2.5,90,0.00,,---,0.00,VWS V14.01,2013-04-28 21:33:00,
2013-04-28 17:38:00,51.4,48.6,29.88,NNE,22,3.4,3.4,90,0.00,,---,0.00,VWS V14.01,2013-04-28 21:38:00,
2013-04-28 17:43:00,51.4,48.9,29.88,SE,135,1.6,1.6,91,0.00,,---,0.00,VWS V14.01,2013-04-28 21:43:00,
2013-04-28 17:48:00,51.6,49.1,29.88,ESE,112,2.7,2.7,91,0.00,,---,0.00,VWS V14.01,2013-04-28 21:48:00,
2013-04-28 17:53:00,51.6,48.8,29.88,NNE,22,2.5,2.5,90,0.00,,---,0.00,VWS V14.01,2013-04-28 21:53:00,
2013-04-28 17:58:00,51.4,48.6,29.88,NE,45,2.5,2.5,90,0.00,,---,0.00,VWS V14.01,2013-04-28 21:58:00,
2013-04-28 18:03:00,51.4,48.6,29.88,NE,45,2.5,2.5,90,0.00,,---,0.00,VWS V14.01,2013-04-28 22:03:00,
2013-04-28 18:08:00,51.4,48.9,29.88,ENE,68,4.0,4.0,91,0.00,,---,0.00,VWS V14.01,2013-04-28 22:08:00,
2013-04-28 18:13:00,51.4,48.9,29.88,ENE,68,4.0,4.0,91,0.00,,---,0.00,VWS V14.01,2013-04-28 22:13:00,
2013-04-28 18:18:00,51.4,48.9,29.88,NNE,22,3.1,4.0,91,0.00,,---,0.00,VWS V14.01,2013-04-28 22:18:00,
2013-04-28 18:23:00,51.4,48.9,29.88,NNW,338,1.6,1.6,91,0.00,,---,0.00,VWS V14.01,2013-04-28 22:23:00,
2013-04-28 18:28:00,51.4,48.9,29.85,NE,45,3.4,3.4,91,0.00,,---,0.00,VWS V14.01,2013-04-28 22:28:00,
2013-04-28 18:33:00,51.3,49.0,29.85,NNE,22,2.0,2.5,92,0.00,,---,0.00,VWS V14.01,2013-04-28 22:33:00,
2013-04-28 18:38:00,51.3,49.0,29.85,NNE,22,2.0,2.0,92,0.00,,---,0.00,VWS V14.01,2013-04-28 22:38:00,
2013-04-28 18:43:00,51.3,49.0,29.88,NNE,22,2.0,2.0,92,0.00,,---,0.00,VWS V14.01,2013-04-28 22:43:00,
2013-04-28 18:48:00,51.1,48.8,29.88,NNE,22,1.3,1.3,92,0.00,,---,0.00,VWS V14.01,2013-04-28 22:48:00,
2013-04-28 18:53:00,51.1,48.8,29.88,NNE,22,1.3,1.3,92,0.00,,---,0.00,VWS V14.01,2013-04-28 22:53:00,
2013-04-28 18:58:00,51.3,49.0,29.85,NNE,22,1.3,1.3,92,0.00,,---,0.00,VWS V14.01,2013-04-28 22:58:00,
2013-04-28 19:03:00,51.3,49.0,29.85,NNE,22,1.3,1.3,92,0.00,,---,0.00,VWS V14.01,2013-04-28 23:03:00,
2013-04-28 19:08:00,51.1,48.8,29.85,NNE,22,1.3,1.3,92,0.00,,---,0.00,VWS V14.01,2013-04-28 23:08:00,
2013-04-28 19:13:00,51.3,49.3,29.85,NNE,22,1.3,1.3,93,0.00,,---,0.00,VWS V14.01,2013-04-28 23:13:00,
2013-04-28 19:18:00,51.3,49.3,29.85,NNE,22,1.3,1.3,93,0.00,,---,0.00,VWS V14.01,2013-04-28 23:18:00,
2013-04-28 19:23:00,51.1,49.1,29.85,NNE,22,1.3,1.3,93,0.00,,---,0.00,VWS V14.01,2013-04-28 23:23:00,
2013-04-28 19:28:00,51.1,49.1,29.85,NNE,22,1.3,1.3,93,0.00,,---,0.00,VWS V14.01,2013-04-28 23:28:00,
2013-04-28 19:33:00,51.1,49.1,29.85,NNE,22,3.4,3.4,93,0.00,,---,0.00,VWS V14.01,2013-04-28 23:33:00,
2013-04-28 19:38:00,51.1,49.1,29.85,NNE,22,3.4,3.4,93,0.00,,---,0.00,VWS V14.01,2013-04-28 23:38:00,
2013-04-28 19:43:00,51.1,49.1,29.85,NNE,22,3.4,3.4,93,0.00,,---,0.00,VWS V14.01,2013-04-28 23:43:00,
2013-04-28 19:48:00,51.1,49.1,29.85,NNE,22,3.4,3.4,93,0.00,,---,0.00,VWS V14.01,2013-04-28 23:48:00,
2013-04-28 19:53:00,51.3,49.3,29.85,NNE,22,3.4,3.4,93,0.00,,---,0.00,VWS V14.01,2013-04-28 23:53:00,
2013-04-28 19:58:00,51.3,49.3,29.85,NNE,22,3.4,3.4,93,0.00,,---,0.00,VWS V14.01,2013-04-28 23:58:00,
2013-04-28 20:03:00,51.3,49.3,29.85,NNE,22,3.4,3.4,93,0.00,,---,0.00,VWS V14.01,2013-04-29 00:03:00,
2013-04-28 20:08:00,51.3,49.3,29.85,NNE,22,3.4,3.4,93,0.00,,---,0.00,VWS V14.01,2013-04-29 00:08:00,
2013-04-28 20:13:00,51.3,49.6,29.85,NNE,22,3.4,3.4,94,0.00,,---,0.00,VWS V14.01,2013-04-29 00:13:00,
2013-04-28 20:18:00,51.3,49.6,29.85,NNE,22,3.4,3.4,94,0.00,,---,0.00,VWS V14.01,2013-04-29 00:18:00,
2013-04-28 20:23:00,51.3,49.6,29.85,NNE,22,3.4,3.4,94,0.00,,---,0.00,VWS V14.01,2013-04-29 00:23:00,
2013-04-28 20:28:00,51.3,49.6,29.85,NNE,22,3.4,3.4,94,0.00,,---,0.00,VWS V14.01,2013-04-29 00:28:00,
2013-04-28 20:33:00,51.3,49.6,29.85,NNE,22,2.2,2.2,94,0.00,,---,0.00,VWS V14.01,2013-04-29 00:33:00,
2013-04-28 20:38:00,51.3,49.6,29.85,NNE,22,2.2,2.2,94,0.00,,---,0.00,VWS V14.01,2013-04-29 00:38:00,
2013-04-28 20:43:00,51.3,49.6,29.85,NNE,22,2.2,2.2,94,0.00,,---,0.00,VWS V14.01,2013-04-29 00:43:00,
2013-04-28 20:48:00,51.3,49.6,29.85,ENE,68,4.0,4.0,94,0.00,,---,0.00,VWS V14.01,2013-04-29 00:48:00,
2013-04-28 20:53:00,51.3,49.6,29.85,ENE,68,2.7,2.7,94,0.00,,---,0.00,VWS V14.01,2013-04-29 00:53:00,
2013-04-28 20:58:00,51.3,49.9,29.85,ENE,68,3.6,3.6,95,0.00,,---,0.00,VWS V14.01,2013-04-29 00:58:00,
2013-04-28 21:03:00,51.4,50.1,29.85,NE,45,6.5,6.5,95,0.00,,---,0.00,VWS V14.01,2013-04-29 01:03:00,
2013-04-28 21:08:00,51.4,50.1,29.85,NNE,22,3.6,3.6,95,0.00,,---,0.00,VWS V14.01,2013-04-29 01:08:00,
2013-04-28 21:13:00,51.3,49.9,29.85,NNE,22,3.6,3.6,95,0.00,,---,0.00,VWS V14.01,2013-04-29 01:13:00,
2013-04-28 21:18:00,51.4,50.1,29.85,NE,45,2.0,2.0,95,0.00,,---,0.00,VWS V14.01,2013-04-29 01:18:00,
2013-04-28 21:23:00,51.4,49.8,29.85,NNE,22,2.0,2.0,94,0.00,,---,0.00,VWS V14.01,2013-04-29 01:23:00,
2013-04-28 21:28:00,51.4,49.8,29.85,NNE,22,2.0,2.0,94,0.00,,---,0.00,VWS V14.01,2013-04-29 01:28:00,
2013-04-28 21:33:00,51.4,50.1,29.85,NNE,22,2.0,2.0,95,0.00,,---,0.00,VWS V14.01,2013-04-29 01:33:00,
2013-04-28 21:38:00,51.4,50.1,29.85,NNE,22,2.0,2.0,95,0.00,,---,0.00,VWS V14.01,2013-04-29 01:38:00,
2013-04-28 21:43:00,51.4,49.8,29.85,NNE,22,2.0,2.0,94,0.00,,---,0.00,VWS V14.01,2013-04-29 01:43:00,
2013-04-28 21:48:00,51.4,50.1,29.85,NNE,22,2.0,2.0,95,0.00,,---,0.00,VWS V14.01,2013-04-29 01:48:00,
2013-04-28 21:53:00,51.4,49.8,29.85,NNE,22,2.0,2.0,94,0.00,,---,0.00,VWS V14.01,2013-04-29 01:53:00,
2013-04-28 21:58:00,51.4,49.8,29.88,NNE,22,2.0,2.0,94,0.00,,---,0.00,VWS V14.01,2013-04-29 01:58:00,
2013-04-28 22:03:00,51.4,49.8,29.88,NNE,22,2.0,2.0,94,0.00,,---,0.00,VWS V14.01,2013-04-29 02:03:00,
2013-04-28 22:08:00,51.4,49.8,29.88,NNE,22,2.0,2.0,94,0.00,,---,0.00,VWS V14.01,2013-04-29 02:08:00,
2013-04-28 22:13:00,51.4,49.8,29.85,NNE,22,2.0,2.0,94,0.00,,---,0.00,VWS V14.01,2013-04-29 02:13:00,
2013-04-28 22:18:00,51.4,49.8,29.85,NNE,22,2.0,2.0,94,0.00,,---,0.00,VWS V14.01,2013-04-29 02:18:00,
2013-04-28 22:23:00,51.4,49.8,29.85,NNE,22,2.0,2.0,94,0.00,,---,0.00,VWS V14.01,2013-04-29 02:23:00,
2013-04-28 22:28:00,51.4,49.8,29.85,NNE,22,2.0,2.0,94,0.00,,---,0.00,VWS V14.01,2013-04-29 02:28:00,
2013-04-28 22:33:00,51.4,49.8,29.85,NNE,22,2.0,2.0,94,0.00,,---,0.00,VWS V14.01,2013-04-29 02:33:00,
2013-04-28 22:38:00,51.6,50.0,29.85,NNE,22,2.0,2.0,94,0.00,,---,0.00,VWS V14.01,2013-04-29 02:38:00,
2013-04-28 22:43:00,51.6,50.0,29.85,NE,45,1.3,1.3,94,0.00,,---,0.00,VWS V14.01,2013-04-29 02:43:00,
2013-04-28 22:48:00,51.6,50.2,29.85,NE,45,1.3,1.3,95,0.00,,---,0.00,VWS V14.01,2013-04-29 02:48:00,
2013-04-28 22:53:00,51.6,50.2,29.85,NE,45,1.3,1.3,95,0.00,,---,0.00,VWS V14.01,2013-04-29 02:53:00,
2013-04-28 22:57:00,51.6,50.2,29.85,NE,45,1.3,1.3,95,0.00,,---,0.00,VWS V14.01,2013-04-29 02:57:00,
2013-04-28 23:02:00,51.6,50.2,29.85,NE,45,1.3,1.3,95,0.00,,---,0.00,VWS V14.01,2013-04-29 03:02:00,
2013-04-28 23:07:00,51.6,50.2,29.85,NE,45,1.3,1.3,95,0.00,,---,0.00,VWS V14.01,2013-04-29 03:07:00,
2013-04-28 23:12:00,51.6,50.2,29.85,NE,45,1.3,1.3,95,0.00,,---,0.00,VWS V14.01,2013-04-29 03:12:00,
2013-04-28 23:17:00,51.6,50.2,29.85,NNE,22,0.0,0.0,95,0.00,,---,0.00,VWS V14.01,2013-04-29 03:17:00,
2013-04-28 23:22:00,51.6,50.2,29.85,NNE,22,0.0,0.0,95,0.00,,---,0.00,VWS V14.01,2013-04-29 03:22:00,
2013-04-28 23:27:00,51.6,50.0,29.85,NNE,22,1.3,1.3,94,0.00,,---,0.00,VWS V14.01,2013-04-29 03:27:00,
2013-04-28 23:32:00,51.6,50.2,29.85,NNE,22,1.3,1.3,95,0.00,,---,0.00,VWS V14.01,2013-04-29 03:32:00,
2013-04-28 23:37:00,51.6,50.2,29.85,East,90,0.0,0.0,95,0.00,,---,0.00,VWS V14.01,2013-04-29 03:37:00,
2013-04-28 23:42:00,51.6,50.2,29.85,NNE,22,0.0,0.0,95,0.00,,---,0.00,VWS V14.01,2013-04-29 03:42:00,
2013-04-28 23:47:00,51.6,50.2,29.85,NE,45,0.9,0.9,95,0.00,,---,0.00,VWS V14.01,2013-04-29 03:47:00,
2013-04-28 23:52:00,51.6,50.2,29.85,NE,45,0.9,0.9,95,0.00,,---,0.00,VWS V14.01,2013-04-29 03:52:00,
2013-04-28 23:57:00,51.6,50.2,29.85,NE,45,0.9,0.9,95,0.00,,---,0.00,VWS V14.01,2013-04-29 03:57:00,